Weather History for Bedford, MA

Change the Weather History Date:

Friday, June 21, 2013

  Actual Average Record
Temperature  
Mean Temperature 70 °F -  
Max Temperature 84 °F 79 °F 93 °F (1997)
Min Temperature 57 °F 56 °F 45 °F (1979)
Cooling Degree Days 4    
Growing Degree Days 20 (Base 50)    
Moisture  
Dew Point 58 °F    
Average Humidity 67    
Maximum Humidity 89    
Minimum Humidity 36    
Precipitation  
Precipitation 0.00 in - - ()
Sea Level Pressure  
Sea Level Pressure 30.25 in    
Wind  
Wind Speed 6 mph (SW)    
Max Wind Speed 8 mph    
Max Gust Speed -    
Visibility 10 miles    
Events      
Averages and records for this station are not official NWS values.
T = Trace of Precipitation, MM = Missing Value Source: NWS Daily Summary

Daily Weather History Graph

Daily Weather History Graph

Search for Another Location

Airport:

Trip Planner

Search our weather history database for the weather conditions in past years. The results will help you decide how hot, cold, wet, or windy it might be!

Date:

Astronomy

Jun. 21, 2013 Rise Set
Actual Time 5:08 AM EDT 8:25 PM EDT
Civil Twilight 4:33 AM EDT 9:00 PM EDT
Nautical Twilight 3:47 AM EDT 9:46 PM EDT
Astronomical Twilight 2:52 AM EDT 10:41 PM EDT
Moon 6:31 PM EDT (6/21) 3:22 AM EDT (6/21)
Length of Visible Light 16h 27m
Length of Day
15h 17m
Waxing Gibbous, 95% of the Moon is Illuminated
Jun 21
Waxing Gibbous
Jun 23
Full
Jun 30
Last Quarter
Jul 8
New
Jul 15
First Quarter

Hourly Weather History & Observations

Time (EDT) Temp. Heat Index Dew Point Humidity Pressure Visibility Wind Dir Wind Speed Gust Speed Precip Events Conditions
12:56 AM 60.1 °F - 54.0 °F 80% 30.27 in 10.0 mi South 4.6 mph - N/A   Clear
1:56 AM 59.0 °F - 54.0 °F 83% 30.27 in 10.0 mi SSW 4.6 mph - N/A   Clear
2:56 AM 57.9 °F - 53.1 °F 84% 30.25 in 10.0 mi SSW 8.1 mph - N/A   Clear
3:56 AM 57.0 °F - 53.1 °F 87% 30.26 in 10.0 mi SSW 6.9 mph - N/A   Clear
4:56 AM 57.0 °F - 54.0 °F 89% 30.26 in 10.0 mi SSW 4.6 mph - N/A   Clear
5:56 AM 57.9 °F - 54.0 °F 87% 30.27 in 10.0 mi SSW 4.6 mph - N/A   Clear
6:56 AM 61.0 °F - 55.0 °F 81% 30.27 in 10.0 mi SW 5.8 mph - N/A   Clear
7:56 AM 64.9 °F - 57.0 °F 75% 30.27 in 10.0 mi SW 5.8 mph - N/A   Clear
8:56 AM 69.1 °F - 59.0 °F 70% 30.27 in 10.0 mi SSW 8.1 mph - N/A   Clear
9:56 AM 73.0 °F - 61.0 °F 66% 30.26 in 10.0 mi SSW 6.9 mph - N/A   Clear
10:56 AM 75.9 °F - 61.0 °F 60% 30.27 in 10.0 mi Variable 3.5 mph - N/A   Clear
11:56 AM 79.0 °F - 61.0 °F 54% 30.26 in 10.0 mi Variable 6.9 mph - N/A   Clear
12:56 PM 81.0 °F 81.7 °F 61.0 °F 50% 30.25 in 10.0 mi WNW 8.1 mph - N/A   Clear
1:56 PM 78.1 °F - 59.0 °F 52% 30.24 in 10.0 mi SW 8.1 mph - N/A   Mostly Cloudy
2:56 PM 80.1 °F 80.7 °F 59.0 °F 48% 30.23 in 10.0 mi WNW 8.1 mph - N/A   Mostly Cloudy
3:56 PM 82.9 °F 82.1 °F 55.9 °F 39% 30.23 in 10.0 mi West 5.8 mph - N/A   Clear
4:56 PM 82.9 °F 81.8 °F 53.1 °F 36% 30.22 in 10.0 mi Variable 4.6 mph - N/A   Clear
5:56 PM 82.0 °F 81.2 °F 53.1 °F 37% 30.22 in 10.0 mi WNW 5.8 mph - N/A   Clear
6:56 PM 80.1 °F 80.1 °F 55.0 °F 42% 30.22 in 10.0 mi WNW 3.5 mph - N/A   Clear
7:56 PM 75.0 °F - 62.1 °F 64% 30.23 in 10.0 mi Calm Calm - N/A   Clear
8:56 PM 69.1 °F - 62.1 °F 78% 30.23 in 10.0 mi SSW 3.5 mph - N/A   Clear
9:56 PM 69.1 °F - 63.0 °F 81% 30.24 in 10.0 mi SSW 5.8 mph - N/A   Clear
10:56 PM 70.0 °F - 62.1 °F 76% 30.24 in 10.0 mi SW 8.1 mph - N/A   Clear
11:56 PM 66.9 °F - 60.1 °F 79% 30.24 in 10.0 mi SSW 3.5 mph - N/A   Clear